owner,sensor,date,latitude,longitude,vertical_datum,sea_water_practical_salinity,qcFlag 
DISL,ioos:station:DISL:KATA:1,2017-09-01T00:00:00Z,30.2583,-88.2131,4.069,17.85,1111122 
DISL,ioos:station:DISL:KATA:1,2017-09-01T00:30:00Z,30.2583,-88.2131,4.131,18.21,1111122 
DISL,ioos:station:DISL:KATA:1,2017-09-01T01:00:00Z,30.2583,-88.2131,4.136,18.4,1111122 
DISL,ioos:station:DISL:KATA:1,2017-09-01T01:30:00Z,30.2583,-88.2131,4.112,18.88,1111122 
DISL,ioos:station:DISL:KATA:1,2017-09-01T02:00:00Z,30.2583,-88.2131,4.116,18.76,1111122 
DISL,ioos:station:DISL:KATA:1,2017-09-01T02:30:00Z,30.2583,-88.2131,4.126,19.09,1111122 
DISL,ioos:station:DISL:KATA:1,2017-09-01T03:00:00Z,30.2583,-88.2131,4.141,18.43,1111122 
DISL,ioos:station:DISL:KATA:1,2017-09-01T03:30:00Z,30.2583,-88.2131,4.185,18.32,1111122 
DISL,ioos:station:DISL:KATA:1,2017-09-01T04:00:00Z,30.2583,-88.2131,4.193,20.22,1111122 
DISL,ioos:station:DISL:KATA:1,2017-09-01T04:30:00Z,30.2583,-88.2131,4.206,19.73,1111122 
DISL,ioos:station:DISL:KATA:1,2017-09-01T05:00:00Z,30.2583,-88.2131,4.205,19.76,1111122 
DISL,ioos:station:DISL:KATA:1,2017-09-01T05:30:00Z,30.2583,-88.2131,4.229,19.61,1111122 
DISL,ioos:station:DISL:KATA:1,2017-09-01T06:00:00Z,30.2583,-88.2131,4.19,20.47,1111122 
DISL,ioos:station:DISL:KATA:1,2017-09-01T06:30:00Z,30.2583,-88.2131,4.236,20.35,1111122 
DISL,ioos:station:DISL:KATA:1,2017-09-01T07:00:00Z,30.2583,-88.2131,4.239,20.81,1111122 
DISL,ioos:station:DISL:KATA:1,2017-09-01T07:30:00Z,30.2583,-88.2131,4.246,20.71,1111122 
DISL,ioos:station:DISL:KATA:1,2017-09-01T08:00:00Z,30.2583,-88.2131,4.254,20.56,1111122 
DISL,ioos:station:DISL:KATA:1,2017-09-01T08:30:00Z,30.2583,-88.2131,4.27,20.38,1111122 
DISL,ioos:station:DISL:KATA:1,2017-09-01T09:00:00Z,30.2583,-88.2131,4.305,20.31,1111122 
DISL,ioos:station:DISL:KATA:1,2017-09-01T09:30:00Z,30.2583,-88.2131,4.331,20.46,1111122 
DISL,ioos:station:DISL:KATA:1,2017-09-01T10:00:00Z,30.2583,-88.2131,4.351,21.05,1111122 
DISL,ioos:station:DISL:KATA:1,2017-09-01T10:30:00Z,30.2583,-88.2131,4.364,21.03,1111122 
DISL,ioos:station:DISL:KATA:1,2017-09-01T11:00:00Z,30.2583,-88.2131,4.368,21.14,1111122 
DISL,ioos:station:DISL:KATA:1,2017-09-01T11:30:00Z,30.2583,-88.2131,4.359,21.02,1111122 
DISL,ioos:station:DISL:KATA:1,2017-09-01T12:00:00Z,30.2583,-88.2131,4.341,21.37,1111122 
DISL,ioos:station:DISL:KATA:1,2017-09-01T12:30:00Z,30.2583,-88.2131,4.345,21.01,1111122 
DISL,ioos:station:DISL:KATA:1,2017-09-01T13:00:00Z,30.2583,-88.2131,4.345,20.59,1111122 
DISL,ioos:station:DISL:KATA:1,2017-09-01T13:30:00Z,30.2583,-88.2131,4.339,20.53,1111122 
DISL,ioos:station:DISL:KATA:1,2017-09-01T14:00:00Z,30.2583,-88.2131,4.328,20.38,1111122 
DISL,ioos:station:DISL:KATA:1,2017-09-01T14:30:00Z,30.2583,-88.2131,4.322,20.98,1111122 
DISL,ioos:station:DISL:KATA:1,2017-09-01T15:00:00Z,30.2583,-88.2131,4.303,20.57,1111122 
DISL,ioos:station:DISL:KATA:1,2017-09-01T15:30:00Z,30.2583,-88.2131,4.283,20.48,1111122 
DISL,ioos:station:DISL:KATA:1,2017-09-01T16:00:00Z,30.2583,-88.2131,4.263,20.75,1111122 
DISL,ioos:station:DISL:KATA:1,2017-09-01T16:30:00Z,30.2583,-88.2131,4.227,20.18,1111122 
DISL,ioos:station:DISL:KATA:1,2017-09-01T17:00:00Z,30.2583,-88.2131,4.194,21.02,1111122 
DISL,ioos:station:DISL:KATA:1,2017-09-01T17:30:00Z,30.2583,-88.2131,4.173,20.55,1111122 
DISL,ioos:station:DISL:KATA:1,2017-09-01T18:00:00Z,30.2583,-88.2131,4.144,20.16,1111122 
DISL,ioos:station:DISL:KATA:1,2017-09-01T18:30:00Z,30.2583,-88.2131,4.113,20.54,1111122 
DISL,ioos:station:DISL:KATA:1,2017-09-01T19:00:00Z,30.2583,-88.2131,4.082,19.9,1111122 
DISL,ioos:station:DISL:KATA:1,2017-09-01T19:30:00Z,30.2583,-88.2131,4.054,20.31,1111122 
DISL,ioos:station:DISL:KATA:1,2017-09-01T20:00:00Z,30.2583,-88.2131,4.028,19.77,1111122 
DISL,ioos:station:DISL:KATA:1,2017-09-01T20:30:00Z,30.2583,-88.2131,4.01,19.8,1111122 
DISL,ioos:station:DISL:KATA:1,2017-09-01T21:00:00Z,30.2583,-88.2131,3.99,20.01,1111122 
DISL,ioos:station:DISL:KATA:1,2017-09-01T21:30:00Z,30.2583,-88.2131,3.98,19.98,1111122 
DISL,ioos:station:DISL:KATA:1,2017-09-01T22:00:00Z,30.2583,-88.2131,3.977,19.54,1111122 
DISL,ioos:station:DISL:KATA:1,2017-09-01T22:30:00Z,30.2583,-88.2131,3.976,19.81,1111122 
DISL,ioos:station:DISL:KATA:1,2017-09-01T23:00:00Z,30.2583,-88.2131,3.965,20.33,1111122 
DISL,ioos:station:DISL:KATA:1,2017-09-01T23:30:00Z,30.2583,-88.2131,3.954,19.62,1111122 
DISL,ioos:station:DISL:KATA:1,2017-09-02T00:00:00Z,30.2583,-88.2131,3.949,19.91,1111122 
DISL,ioos:station:DISL:KATA:1,2017-09-02T00:30:00Z,30.2583,-88.2131,3.941,19.33,1111122 
DISL,ioos:station:DISL:KATA:1,2017-09-02T01:00:00Z,30.2583,-88.2131,3.958,19.64,1111122 
DISL,ioos:station:DISL:KATA:1,2017-09-02T01:30:00Z,30.2583,-88.2131,3.996,19.54,1111122 
DISL,ioos:station:DISL:KATA:1,2017-09-02T02:00:00Z,30.2583,-88.2131,4.024,19.29,1111122 
DISL,ioos:station:DISL:KATA:1,2017-09-02T02:30:00Z,30.2583,-88.2131,4.063,19.48,1111122 
DISL,ioos:station:DISL:KATA:1,2017-09-02T03:00:00Z,30.2583,-88.2131,4.096,19.49,1111122 
DISL,ioos:station:DISL:KATA:1,2017-09-02T03:30:00Z,30.2583,-88.2131,4.125,19.52,1111122 
DISL,ioos:station:DISL:KATA:1,2017-09-02T04:00:00Z,30.2583,-88.2131,4.145,20.17,1111122 
DISL,ioos:station:DISL:KATA:1,2017-09-02T04:30:00Z,30.2583,-88.2131,4.175,19.75,1111122 
DISL,ioos:station:DISL:KATA:1,2017-09-02T05:00:00Z,30.2583,-88.2131,4.118,19.82,1111122 
DISL,ioos:station:DISL:KATA:1,2017-09-02T05:30:00Z,30.2583,-88.2131,4.145,19.5,1111122 
DISL,ioos:station:DISL:KATA:1,2017-09-02T06:00:00Z,30.2583,-88.2131,4.125,19.5,1111122 
DISL,ioos:station:DISL:KATA:1,2017-09-02T06:30:00Z,30.2583,-88.2131,4.113,19.98,1111122 
DISL,ioos:station:DISL:KATA:1,2017-09-02T07:00:00Z,30.2583,-88.2131,4.149,19.75,1111122 
DISL,ioos:station:DISL:KATA:1,2017-09-02T07:30:00Z,30.2583,-88.2131,4.168,19.32,1111122 
DISL,ioos:station:DISL:KATA:1,2017-09-02T08:00:00Z,30.2583,-88.2131,4.197,19.78,1111122 
DISL,ioos:station:DISL:KATA:1,2017-09-02T08:30:00Z,30.2583,-88.2131,4.24,19.82,1111122 
DISL,ioos:station:DISL:KATA:1,2017-09-02T09:00:00Z,30.2583,-88.2131,4.24,19.98,1111122 
DISL,ioos:station:DISL:KATA:1,2017-09-02T09:30:00Z,30.2583,-88.2131,4.237,19.17,1111122 
DISL,ioos:station:DISL:KATA:1,2017-09-02T10:00:00Z,30.2583,-88.2131,4.232,19.31,1111122 
DISL,ioos:station:DISL:KATA:1,2017-09-02T10:30:00Z,30.2583,-88.2131,4.228,19.02,1111122 
DISL,ioos:station:DISL:KATA:1,2017-09-02T11:00:00Z,30.2583,-88.2131,4.227,19.45,1111122 
DISL,ioos:station:DISL:KATA:1,2017-09-02T11:30:00Z,30.2583,-88.2131,4.25,19.38,1111122 
DISL,ioos:station:DISL:KATA:1,2017-09-02T12:00:00Z,30.2583,-88.2131,4.256,19.01,1111122 
DISL,ioos:station:DISL:KATA:1,2017-09-02T12:30:00Z,30.2583,-88.2131,4.271,19.43,1111122 
DISL,ioos:station:DISL:KATA:1,2017-09-02T13:00:00Z,30.2583,-88.2131,4.287,19.45,1111122 
DISL,ioos:station:DISL:KATA:1,2017-09-02T13:30:00Z,30.2583,-88.2131,4.299,19.84,1111122 
DISL,ioos:station:DISL:KATA:1,2017-09-02T14:00:00Z,30.2583,-88.2131,4.295,19.32,1111122 
DISL,ioos:station:DISL:KATA:1,2017-09-02T14:30:00Z,30.2583,-88.2131,4.294,19.65,1111122 
DISL,ioos:station:DISL:KATA:1,2017-09-02T15:00:00Z,30.2583,-88.2131,4.29,19.25,1111122 
DISL,ioos:station:DISL:KATA:1,2017-09-02T15:30:00Z,30.2583,-88.2131,4.264,19.75,1111122 
DISL,ioos:station:DISL:KATA:1,2017-09-02T16:00:00Z,30.2583,-88.2131,4.231,19.57,1111122 
DISL,ioos:station:DISL:KATA:1,2017-09-02T16:30:00Z,30.2583,-88.2131,4.199,19.54,1111122 
DISL,ioos:station:DISL:KATA:1,2017-09-02T17:00:00Z,30.2583,-88.2131,4.154,19.32,1111122 
DISL,ioos:station:DISL:KATA:1,2017-09-02T17:30:00Z,30.2583,-88.2131,4.123,18.67,1111122 
DISL,ioos:station:DISL:KATA:1,2017-09-02T18:00:00Z,30.2583,-88.2131,4.098,18.24,1111122 
DISL,ioos:station:DISL:KATA:1,2017-09-02T18:30:00Z,30.2583,-88.2131,4.07,18.06,1111122 
DISL,ioos:station:DISL:KATA:1,2017-09-02T19:00:00Z,30.2583,-88.2131,4.044,18.3,1111122 
DISL,ioos:station:DISL:KATA:1,2017-09-02T19:30:00Z,30.2583,-88.2131,4.02,15.98,1111122 
DISL,ioos:station:DISL:KATA:1,2017-09-02T20:00:00Z,30.2583,-88.2131,3.994,16.46,1111122 
DISL,ioos:station:DISL:KATA:1,2017-09-02T20:30:00Z,30.2583,-88.2131,3.966,17.01,1111122 
DISL,ioos:station:DISL:KATA:1,2017-09-02T21:00:00Z,30.2583,-88.2131,3.938,16.76,1111122 
DISL,ioos:station:DISL:KATA:1,2017-09-02T21:30:00Z,30.2583,-88.2131,3.919,16.94,1111122 
DISL,ioos:station:DISL:KATA:1,2017-09-02T22:00:00Z,30.2583,-88.2131,3.904,17.27,1111122 
DISL,ioos:station:DISL:KATA:1,2017-09-02T22:30:00Z,30.2583,-88.2131,3.908,17.14,1111122 
DISL,ioos:station:DISL:KATA:1,2017-09-02T23:00:00Z,30.2583,-88.2131,3.896,17.32,1111122 
DISL,ioos:station:DISL:KATA:1,2017-09-02T23:30:00Z,30.2583,-88.2131,3.888,17.42,1111122 
DISL,ioos:station:DISL:KATA:1,2017-09-03T00:00:00Z,30.2583,-88.2131,3.877,17.48,1111122 
DISL,ioos:station:DISL:KATA:1,2017-09-03T00:30:00Z,30.2583,-88.2131,3.894,17.34,1111122 
DISL,ioos:station:DISL:KATA:1,2017-09-03T01:00:00Z,30.2583,-88.2131,3.924,17.06,1111122 
DISL,ioos:station:DISL:KATA:1,2017-09-03T01:30:00Z,30.2583,-88.2131,3.952,17.64,1111122 
DISL,ioos:station:DISL:KATA:1,2017-09-03T02:00:00Z,30.2583,-88.2131,3.98,17.63,1111122 
DISL,ioos:station:DISL:KATA:1,2017-09-03T02:30:00Z,30.2583,-88.2131,4.018,17.17,1111122 
DISL,ioos:station:DISL:KATA:1,2017-09-03T03:00:00Z,30.2583,-88.2131,4.021,17.93,1111122 
DISL,ioos:station:DISL:KATA:1,2017-09-03T03:30:00Z,30.2583,-88.2131,4.025,18.53,1111122 
DISL,ioos:station:DISL:KATA:1,2017-09-03T04:00:00Z,30.2583,-88.2131,4.049,18.67,1111122 
DISL,ioos:station:DISL:KATA:1,2017-09-03T04:30:00Z,30.2583,-88.2131,4.066,18.52,1111122 
DISL,ioos:station:DISL:KATA:1,2017-09-03T05:00:00Z,30.2583,-88.2131,4.074,18.71,1111122 
DISL,ioos:station:DISL:KATA:1,2017-09-03T05:30:00Z,30.2583,-88.2131,4.103,18.53,1111122 
DISL,ioos:station:DISL:KATA:1,2017-09-03T06:00:00Z,30.2583,-88.2131,4.129,18.42,1111122 
DISL,ioos:station:DISL:KATA:1,2017-09-03T06:30:00Z,30.2583,-88.2131,4.139,18.68,1111122 
DISL,ioos:station:DISL:KATA:1,2017-09-03T07:00:00Z,30.2583,-88.2131,4.152,18.92,1111122 
DISL,ioos:station:DISL:KATA:1,2017-09-03T07:30:00Z,30.2583,-88.2131,4.155,18.7,1111122 
DISL,ioos:station:DISL:KATA:1,2017-09-03T08:00:00Z,30.2583,-88.2131,4.154,18.81,1111122 
DISL,ioos:station:DISL:KATA:1,2017-09-03T08:30:00Z,30.2583,-88.2131,4.156,18.73,1111122 
DISL,ioos:station:DISL:KATA:1,2017-09-03T09:00:00Z,30.2583,-88.2131,4.163,18.72,1111122 
DISL,ioos:station:DISL:KATA:1,2017-09-03T09:30:00Z,30.2583,-88.2131,4.202,18.79,1111122 
DISL,ioos:station:DISL:KATA:1,2017-09-03T10:00:00Z,30.2583,-88.2131,4.246,18.84,1111122 
DISL,ioos:station:DISL:KATA:1,2017-09-03T10:30:00Z,30.2583,-88.2131,4.287,18.78,1111122 
DISL,ioos:station:DISL:KATA:1,2017-09-03T11:00:00Z,30.2583,-88.2131,4.324,18.82,1111122 
DISL,ioos:station:DISL:KATA:1,2017-09-03T11:30:00Z,30.2583,-88.2131,4.355,18.92,1111122 
DISL,ioos:station:DISL:KATA:1,2017-09-03T12:00:00Z,30.2583,-88.2131,4.367,18.88,1111122 
DISL,ioos:station:DISL:KATA:1,2017-09-03T12:30:00Z,30.2583,-88.2131,4.354,19.28,1111122 
DISL,ioos:station:DISL:KATA:1,2017-09-03T13:00:00Z,30.2583,-88.2131,4.353,19.08,1111122 
DISL,ioos:station:DISL:KATA:1,2017-09-03T13:30:00Z,30.2583,-88.2131,4.333,19.03,1111122 
DISL,ioos:station:DISL:KATA:1,2017-09-03T14:00:00Z,30.2583,-88.2131,4.321,19.33,1111122 
DISL,ioos:station:DISL:KATA:1,2017-09-03T14:30:00Z,30.2583,-88.2131,4.318,19.34,1111122 
DISL,ioos:station:DISL:KATA:1,2017-09-03T15:00:00Z,30.2583,-88.2131,4.304,19.48,1111122 
DISL,ioos:station:DISL:KATA:1,2017-09-03T15:30:00Z,30.2583,-88.2131,4.299,19.44,1111122 
DISL,ioos:station:DISL:KATA:1,2017-09-03T16:00:00Z,30.2583,-88.2131,4.284,18.8,1111122 
DISL,ioos:station:DISL:KATA:1,2017-09-03T16:30:00Z,30.2583,-88.2131,4.258,19.53,1111122 
DISL,ioos:station:DISL:KATA:1,2017-09-03T17:00:00Z,30.2583,-88.2131,4.235,19.02,1111122 
DISL,ioos:station:DISL:KATA:1,2017-09-03T17:30:00Z,30.2583,-88.2131,4.199,18.84,1111122 
DISL,ioos:station:DISL:KATA:1,2017-09-03T18:00:00Z,30.2583,-88.2131,4.161,18.62,1111122 
DISL,ioos:station:DISL:KATA:1,2017-09-03T18:30:00Z,30.2583,-88.2131,4.123,18.79,1111122 
DISL,ioos:station:DISL:KATA:1,2017-09-03T19:00:00Z,30.2583,-88.2131,4.076,18.68,1111122 
DISL,ioos:station:DISL:KATA:1,2017-09-03T19:30:00Z,30.2583,-88.2131,4.032,18.41,1111122 
DISL,ioos:station:DISL:KATA:1,2017-09-03T20:00:00Z,30.2583,-88.2131,3.999,17.61,1111122 
DISL,ioos:station:DISL:KATA:1,2017-09-03T20:30:00Z,30.2583,-88.2131,3.963,18.19,1111122 
DISL,ioos:station:DISL:KATA:1,2017-09-03T21:00:00Z,30.2583,-88.2131,3.933,18.66,1111122 
DISL,ioos:station:DISL:KATA:1,2017-09-03T21:30:00Z,30.2583,-88.2131,3.912,18.38,1111122 
DISL,ioos:station:DISL:KATA:1,2017-09-03T22:00:00Z,30.2583,-88.2131,3.899,18.26,1111122 
DISL,ioos:station:DISL:KATA:1,2017-09-03T22:30:00Z,30.2583,-88.2131,3.894,18.53,1111122 
DISL,ioos:station:DISL:KATA:1,2017-09-03T23:00:00Z,30.2583,-88.2131,3.899,18.46,1111122 
DISL,ioos:station:DISL:KATA:1,2017-09-03T23:30:00Z,30.2583,-88.2131,3.91,18.42,1111122 
DISL,ioos:station:DISL:KATA:1,2017-09-04T00:00:00Z,30.2583,-88.2131,3.93,18.31,1111122 
DISL,ioos:station:DISL:KATA:1,2017-09-04T00:30:00Z,30.2583,-88.2131,3.949,18.62,1111122 
DISL,ioos:station:DISL:KATA:1,2017-09-04T01:00:00Z,30.2583,-88.2131,3.965,18.56,1111122 
DISL,ioos:station:DISL:KATA:1,2017-09-04T01:30:00Z,30.2583,-88.2131,3.978,18.55,1111122 
DISL,ioos:station:DISL:KATA:1,2017-09-04T02:00:00Z,30.2583,-88.2131,3.976,18.62,1111122 
DISL,ioos:station:DISL:KATA:1,2017-09-04T02:30:00Z,30.2583,-88.2131,3.977,18.86,1111122 
DISL,ioos:station:DISL:KATA:1,2017-09-04T03:00:00Z,30.2583,-88.2131,3.987,18.92,1111122 
DISL,ioos:station:DISL:KATA:1,2017-09-04T03:30:00Z,30.2583,-88.2131,4.011,18.87,1111122 
DISL,ioos:station:DISL:KATA:1,2017-09-04T04:00:00Z,30.2583,-88.2131,4.033,18.9,1111122 
DISL,ioos:station:DISL:KATA:1,2017-09-04T04:30:00Z,30.2583,-88.2131,4.054,18.82,1111122 
DISL,ioos:station:DISL:KATA:1,2017-09-04T05:00:00Z,30.2583,-88.2131,4.076,18.76,1111122 
DISL,ioos:station:DISL:KATA:1,2017-09-04T05:30:00Z,30.2583,-88.2131,4.092,18.88,1111122 
DISL,ioos:station:DISL:KATA:1,2017-09-04T06:00:00Z,30.2583,-88.2131,4.099,18.89,1111122 
DISL,ioos:station:DISL:KATA:1,2017-09-04T06:30:00Z,30.2583,-88.2131,4.099,19.02,1111122 
DISL,ioos:station:DISL:KATA:1,2017-09-04T07:00:00Z,30.2583,-88.2131,4.108,19.0,1111122 
DISL,ioos:station:DISL:KATA:1,2017-09-04T07:30:00Z,30.2583,-88.2131,4.112,18.79,1111122 
DISL,ioos:station:DISL:KATA:1,2017-09-04T08:00:00Z,30.2583,-88.2131,4.13,18.77,1111122 
DISL,ioos:station:DISL:KATA:1,2017-09-04T08:30:00Z,30.2583,-88.2131,4.151,18.93,1111122 
DISL,ioos:station:DISL:KATA:1,2017-09-04T09:00:00Z,30.2583,-88.2131,4.176,18.76,1111122 
DISL,ioos:station:DISL:KATA:1,2017-09-04T09:30:00Z,30.2583,-88.2131,4.205,18.82,1111122 
DISL,ioos:station:DISL:KATA:1,2017-09-04T10:00:00Z,30.2583,-88.2131,4.23,18.54,1111122 
DISL,ioos:station:DISL:KATA:1,2017-09-04T10:30:00Z,30.2583,-88.2131,4.258,18.76,1111122 
DISL,ioos:station:DISL:KATA:1,2017-09-04T11:00:00Z,30.2583,-88.2131,4.283,18.46,1111122 
DISL,ioos:station:DISL:KATA:1,2017-09-04T11:30:00Z,30.2583,-88.2131,4.305,18.4,1111122 
DISL,ioos:station:DISL:KATA:1,2017-09-04T12:00:00Z,30.2583,-88.2131,4.321,18.31,1111122 
DISL,ioos:station:DISL:KATA:1,2017-09-04T12:30:00Z,30.2583,-88.2131,4.341,18.51,1111122 
DISL,ioos:station:DISL:KATA:1,2017-09-04T13:00:00Z,30.2583,-88.2131,4.363,18.4,1111122 
DISL,ioos:station:DISL:KATA:1,2017-09-04T13:30:00Z,30.2583,-88.2131,4.374,18.34,1111122 
DISL,ioos:station:DISL:KATA:1,2017-09-04T14:00:00Z,30.2583,-88.2131,4.386,18.24,1111122 
DISL,ioos:station:DISL:KATA:1,2017-09-04T14:30:00Z,30.2583,-88.2131,4.378,18.17,1111122 
DISL,ioos:station:DISL:KATA:1,2017-09-04T15:00:00Z,30.2583,-88.2131,4.373,18.05,1111122 
DISL,ioos:station:DISL:KATA:1,2017-09-04T15:30:00Z,30.2583,-88.2131,4.358,17.97,1111122 
DISL,ioos:station:DISL:KATA:1,2017-09-04T16:00:00Z,30.2583,-88.2131,4.345,17.99,1111122 
DISL,ioos:station:DISL:KATA:1,2017-09-04T16:30:00Z,30.2583,-88.2131,4.332,18.04,1111122 
DISL,ioos:station:DISL:KATA:1,2017-09-04T17:00:00Z,30.2583,-88.2131,4.316,18.14,1111122 
DISL,ioos:station:DISL:KATA:1,2017-09-04T17:30:00Z,30.2583,-88.2131,4.297,18.39,1111122 
DISL,ioos:station:DISL:KATA:1,2017-09-04T18:00:00Z,30.2583,-88.2131,4.268,18.4,1111122 
DISL,ioos:station:DISL:KATA:1,2017-09-04T18:30:00Z,30.2583,-88.2131,4.243,18.12,1111122 
DISL,ioos:station:DISL:KATA:1,2017-09-04T19:00:00Z,30.2583,-88.2131,4.199,18.2,1111122 
DISL,ioos:station:DISL:KATA:1,2017-09-04T19:30:00Z,30.2583,-88.2131,4.151,18.3,1111122 
DISL,ioos:station:DISL:KATA:1,2017-09-04T20:00:00Z,30.2583,-88.2131,4.101,17.97,1111122 
DISL,ioos:station:DISL:KATA:1,2017-09-04T20:30:00Z,30.2583,-88.2131,4.056,17.93,1111122 
DISL,ioos:station:DISL:KATA:1,2017-09-04T21:00:00Z,30.2583,-88.2131,4.015,18.27,1111122 
DISL,ioos:station:DISL:KATA:1,2017-09-04T21:30:00Z,30.2583,-88.2131,3.987,18.23,1111122 
DISL,ioos:station:DISL:KATA:1,2017-09-04T22:00:00Z,30.2583,-88.2131,3.96,18.73,1111122 
DISL,ioos:station:DISL:KATA:1,2017-09-04T22:30:00Z,30.2583,-88.2131,3.951,17.9,1111122 
DISL,ioos:station:DISL:KATA:1,2017-09-04T23:00:00Z,30.2583,-88.2131,3.94,18.15,1111122 
DISL,ioos:station:DISL:KATA:1,2017-09-04T23:30:00Z,30.2583,-88.2131,3.943,18.36,1111122 
DISL,ioos:station:DISL:KATA:1,2017-09-05T00:00:00Z,30.2583,-88.2131,3.95,18.4,1111122 
DISL,ioos:station:DISL:KATA:1,2017-09-05T00:30:00Z,30.2583,-88.2131,3.971,18.14,1111122 
DISL,ioos:station:DISL:KATA:1,2017-09-05T01:00:00Z,30.2583,-88.2131,3.982,17.64,1111122 
DISL,ioos:station:DISL:KATA:1,2017-09-05T01:30:00Z,30.2583,-88.2131,3.994,17.53,1111122 
DISL,ioos:station:DISL:KATA:1,2017-09-05T02:00:00Z,30.2583,-88.2131,3.998,18.22,1111122 
DISL,ioos:station:DISL:KATA:1,2017-09-05T02:30:00Z,30.2583,-88.2131,4.01,17.86,1111122 
DISL,ioos:station:DISL:KATA:1,2017-09-05T03:00:00Z,30.2583,-88.2131,4.015,18.27,1111122 
DISL,ioos:station:DISL:KATA:1,2017-09-05T03:30:00Z,30.2583,-88.2131,4.03,18.19,1111122 
DISL,ioos:station:DISL:KATA:1,2017-09-05T04:00:00Z,30.2583,-88.2131,4.044,18.07,1111122 
DISL,ioos:station:DISL:KATA:1,2017-09-05T04:30:00Z,30.2583,-88.2131,4.059,18.36,1111122 
DISL,ioos:station:DISL:KATA:1,2017-09-05T05:00:00Z,30.2583,-88.2131,4.079,18.73,1111122 
DISL,ioos:station:DISL:KATA:1,2017-09-05T05:30:00Z,30.2583,-88.2131,4.099,18.29,1111122 
DISL,ioos:station:DISL:KATA:1,2017-09-05T06:00:00Z,30.2583,-88.2131,4.112,18.95,1111122 
DISL,ioos:station:DISL:KATA:1,2017-09-05T06:30:00Z,30.2583,-88.2131,4.125,18.47,1111122 
DISL,ioos:station:DISL:KATA:1,2017-09-05T07:00:00Z,30.2583,-88.2131,4.139,18.48,1111122 
DISL,ioos:station:DISL:KATA:1,2017-09-05T07:30:00Z,30.2583,-88.2131,4.154,18.63,1111122 
DISL,ioos:station:DISL:KATA:1,2017-09-05T08:00:00Z,30.2583,-88.2131,4.16,18.98,1111122 
DISL,ioos:station:DISL:KATA:1,2017-09-05T08:30:00Z,30.2583,-88.2131,4.168,18.27,1111122 
DISL,ioos:station:DISL:KATA:1,2017-09-05T09:00:00Z,30.2583,-88.2131,4.167,18.69,1111122 
DISL,ioos:station:DISL:KATA:1,2017-09-05T09:30:00Z,30.2583,-88.2131,4.181,18.2,1111122 
DISL,ioos:station:DISL:KATA:1,2017-09-05T10:00:00Z,30.2583,-88.2131,4.188,18.29,1111122 
DISL,ioos:station:DISL:KATA:1,2017-09-05T10:30:00Z,30.2583,-88.2131,4.206,18.74,1111122 
DISL,ioos:station:DISL:KATA:1,2017-09-05T11:00:00Z,30.2583,-88.2131,4.237,18.48,1111122 
DISL,ioos:station:DISL:KATA:1,2017-09-05T11:30:00Z,30.2583,-88.2131,4.253,19.47,1111122 
DISL,ioos:station:DISL:KATA:1,2017-09-05T12:00:00Z,30.2583,-88.2131,4.289,18.59,1111122 
DISL,ioos:station:DISL:KATA:1,2017-09-05T12:30:00Z,30.2583,-88.2131,4.313,19.32,1111122 
DISL,ioos:station:DISL:KATA:1,2017-09-05T13:00:00Z,30.2583,-88.2131,4.339,19.12,1111122 
DISL,ioos:station:DISL:KATA:1,2017-09-05T13:30:00Z,30.2583,-88.2131,4.348,19.25,1111122 
DISL,ioos:station:DISL:KATA:1,2017-09-05T14:00:00Z,30.2583,-88.2131,4.354,19.69,1111122 
DISL,ioos:station:DISL:KATA:1,2017-09-05T14:30:00Z,30.2583,-88.2131,4.361,19.22,1111122 
DISL,ioos:station:DISL:KATA:1,2017-09-05T15:00:00Z,30.2583,-88.2131,4.368,19.46,1111122 
DISL,ioos:station:DISL:KATA:1,2017-09-05T15:30:00Z,30.2583,-88.2131,4.367,18.82,1111122 
DISL,ioos:station:DISL:KATA:1,2017-09-05T16:00:00Z,30.2583,-88.2131,4.367,19.66,1111122 
DISL,ioos:station:DISL:KATA:1,2017-09-05T16:30:00Z,30.2583,-88.2131,4.364,19.78,1111122 
DISL,ioos:station:DISL:KATA:1,2017-09-05T17:00:00Z,30.2583,-88.2131,4.36,19.69,1111122 
DISL,ioos:station:DISL:KATA:1,2017-09-05T17:30:00Z,30.2583,-88.2131,4.359,18.92,1111122 
DISL,ioos:station:DISL:KATA:1,2017-09-05T18:00:00Z,30.2583,-88.2131,4.342,19.61,1111122 
DISL,ioos:station:DISL:KATA:1,2017-09-05T18:30:00Z,30.2583,-88.2131,4.323,19.67,1111122 
DISL,ioos:station:DISL:KATA:1,2017-09-05T19:00:00Z,30.2583,-88.2131,4.288,19.64,1111122 
DISL,ioos:station:DISL:KATA:1,2017-09-05T19:30:00Z,30.2583,-88.2131,4.252,18.88,1111122 
DISL,ioos:station:DISL:KATA:1,2017-09-05T20:00:00Z,30.2583,-88.2131,4.206,19.06,1111122 
DISL,ioos:station:DISL:KATA:1,2017-09-05T20:30:00Z,30.2583,-88.2131,4.166,19.55,1111122 
DISL,ioos:station:DISL:KATA:1,2017-09-05T21:00:00Z,30.2583,-88.2131,4.13,19.42,1111122 
DISL,ioos:station:DISL:KATA:1,2017-09-05T21:30:00Z,30.2583,-88.2131,4.094,19.39,1111122 
DISL,ioos:station:DISL:KATA:1,2017-09-05T22:00:00Z,30.2583,-88.2131,4.075,18.65,1111122 
DISL,ioos:station:DISL:KATA:1,2017-09-05T22:30:00Z,30.2583,-88.2131,4.05,18.54,1111122 
DISL,ioos:station:DISL:KATA:1,2017-09-05T23:00:00Z,30.2583,-88.2131,4.045,18.37,1111122 
DISL,ioos:station:DISL:KATA:1,2017-09-05T23:30:00Z,30.2583,-88.2131,4.053,19.39,1111122 
DISL,ioos:station:DISL:KATA:1,2017-09-06T00:00:00Z,30.2583,-88.2131,4.058,19.44,1111122 
DISL,ioos:station:DISL:KATA:1,2017-09-06T00:30:00Z,30.2583,-88.2131,4.082,18.65,1111122 
DISL,ioos:station:DISL:KATA:1,2017-09-06T01:00:00Z,30.2583,-88.2131,4.106,18.21,1111122 
DISL,ioos:station:DISL:KATA:1,2017-09-06T01:30:00Z,30.2583,-88.2131,4.121,18.18,1111122 
DISL,ioos:station:DISL:KATA:1,2017-09-06T02:00:00Z,30.2583,-88.2131,4.134,18.52,1111122 
DISL,ioos:station:DISL:KATA:1,2017-09-06T02:30:00Z,30.2583,-88.2131,4.14,18.61,1111122 
DISL,ioos:station:DISL:KATA:1,2017-09-06T03:00:00Z,30.2583,-88.2131,4.131,18.02,1111122 
DISL,ioos:station:DISL:KATA:1,2017-09-06T03:30:00Z,30.2583,-88.2131,4.118,19.08,1111122 
DISL,ioos:station:DISL:KATA:1,2017-09-06T04:00:00Z,30.2583,-88.2131,4.114,18.18,1111122 
DISL,ioos:station:DISL:KATA:1,2017-09-06T04:30:00Z,30.2583,-88.2131,4.11,18.14,1111122 
DISL,ioos:station:DISL:KATA:1,2017-09-06T05:00:00Z,30.2583,-88.2131,4.099,18.09,1111122 
DISL,ioos:station:DISL:KATA:1,2017-09-06T05:30:00Z,30.2583,-88.2131,4.102,18.12,1111122 
DISL,ioos:station:DISL:KATA:1,2017-09-06T06:00:00Z,30.2583,-88.2131,4.101,19.25,1111122 
DISL,ioos:station:DISL:KATA:1,2017-09-06T06:30:00Z,30.2583,-88.2131,4.113,19.32,1111122 
DISL,ioos:station:DISL:KATA:1,2017-09-06T07:00:00Z,30.2583,-88.2131,4.177,18.28,1111122 
DISL,ioos:station:DISL:KATA:1,2017-09-06T07:30:00Z,30.2583,-88.2131,4.254,18.09,1111122 
DISL,ioos:station:DISL:KATA:1,2017-09-06T08:00:00Z,30.2583,-88.2131,4.169,18.36,1111122 
DISL,ioos:station:DISL:KATA:1,2017-09-06T08:30:00Z,30.2583,-88.2131,4.093,17.85,1111122 
DISL,ioos:station:DISL:KATA:1,2017-09-06T09:00:00Z,30.2583,-88.2131,4.129,18.75,1111122 
DISL,ioos:station:DISL:KATA:1,2017-09-06T09:30:00Z,30.2583,-88.2131,4.164,17.78,1111122 
DISL,ioos:station:DISL:KATA:1,2017-09-06T10:00:00Z,30.2583,-88.2131,4.175,17.84,1111122 
DISL,ioos:station:DISL:KATA:1,2017-09-06T10:30:00Z,30.2583,-88.2131,4.164,18.59,1111122 
DISL,ioos:station:DISL:KATA:1,2017-09-06T11:00:00Z,30.2583,-88.2131,4.175,18.29,1111122 
DISL,ioos:station:DISL:KATA:1,2017-09-06T11:30:00Z,30.2583,-88.2131,4.197,17.94,1111122 
DISL,ioos:station:DISL:KATA:1,2017-09-06T12:00:00Z,30.2583,-88.2131,4.228,18.82,1111122 
DISL,ioos:station:DISL:KATA:1,2017-09-06T12:30:00Z,30.2583,-88.2131,4.257,19.23,1111122 
DISL,ioos:station:DISL:KATA:1,2017-09-06T13:00:00Z,30.2583,-88.2131,4.295,19.48,1111122 
DISL,ioos:station:DISL:KATA:1,2017-09-06T13:30:00Z,30.2583,-88.2131,4.315,18.59,1111122 
DISL,ioos:station:DISL:KATA:1,2017-09-06T14:00:00Z,30.2583,-88.2131,4.337,19.27,1111122 